Weather History for Peoria, IL

Change the Weather History Date:

Friday, January 31, 2014

  Actual Average Record
Temperature  
Mean Temperature 20 °F 26 °F  
Max Temperature 21 °F 34 °F 70 °F (1989)
Min Temperature 18 °F 18 °F -13 °F (1996)
Degree Days  
Heating Degree Days 45 39  
Month to date heating degree days 1442 1238  
Since 1 July heating degree days 3868 3521  
Cooling Degree Days 0 0  
Month to date cooling degree days 0 0  
Year to date cooling degree days 0 0  
Moisture  
Dew Point 13 °F    
Average Humidity 76    
Maximum Humidity 84    
Minimum Humidity 67    
Precipitation  
Precipitation 0.16 in 0.06 in 0.68 in (2002)
Month to date precipitation 2.10 1.78  
Year to date precipitation 2.10 1.78  
Snow  
Snow 3.10 in 0.20 in 5.60 in (1914)
Month to date snowfall 18.2 6.9  
Since 1 July snowfall 27.3 15.1  
Snow Depth 3.00 in    
Sea Level Pressure  
Sea Level Pressure 30.13 in    
Wind  
Wind Speed 5 mph (NNE)    
Max Wind Speed 10 mph    
Max Gust Speed 16 mph    
Visibility 4 miles    
Events Snow    
T = Trace of Precipitation, MM = Missing Value Source: NWS Daily Summary

Daily Weather History Graph

Daily Weather History Graph

Search for Another Location

Airport:

Trip Planner

Search our weather history database for the weather conditions in past years. The results will help you decide how hot, cold, wet, or windy it might be!

Date:

Astronomy

Jan. 31, 2014 Rise Set
Actual Time 7:09 AM CST 5:15 PM CST
Civil Twilight 6:40 AM CST 5:44 PM CST
Nautical Twilight 6:07 AM CST 6:17 PM CST
Astronomical Twilight 5:35 AM CST 6:49 PM CST
Moon 7:18 AM CST (1/31) 6:40 PM CST (1/31)
Length of Visible Light 11h 03m
Length of Day
10h 05m
New Moon, 1% of the Moon is Illuminated
Jan 31
New Moon
Feb 6
First Quarter
Feb 14
Full
Feb 22
Last Quarter
Mar 1
New

Hourly Weather History & Observations

Time (CST) Temp. Windchill Dew Point Humidity Pressure Visibility Wind Dir Wind Speed Gust Speed Precip Events Conditions
12:54 AM 19.9 °F 11.1 °F 12.0 °F 71% 30.03 in 10.0 mi Variable 6.9 mph - N/A   Clear
1:54 AM 19.9 °F 11.1 °F 10.9 °F 68% 30.06 in 10.0 mi North 6.9 mph - N/A   Clear
2:54 AM 19.9 °F 10.1 °F 10.0 °F 65% 30.07 in 10.0 mi NNW 8.1 mph - N/A   Mostly Cloudy
3:54 AM 19.9 °F 11.1 °F 10.0 °F 65% 30.07 in 10.0 mi North 6.9 mph - N/A   Overcast
4:54 AM 19.0 °F 11.1 °F 10.0 °F 68% 30.09 in 10.0 mi North 5.8 mph - N/A   Overcast
5:54 AM 19.0 °F 13.9 °F 10.0 °F 68% 30.14 in 10.0 mi North 3.5 mph - N/A   Overcast
6:54 AM 19.0 °F 13.9 °F 10.0 °F 68% 30.14 in 10.0 mi NNE 3.5 mph - N/A   Overcast
7:54 AM 19.0 °F - 10.0 °F 68% 30.17 in 10.0 mi Calm Calm - N/A   Overcast
8:31 AM 18.0 °F 11.1 °F 10.9 °F 74% 30.16 in 1.8 mi WNW 4.6 mph - 0.00 in Snow Light Snow
8:38 AM 18.0 °F 12.7 °F 10.9 °F 74% 30.16 in 1.0 mi NW 3.5 mph - 0.00 in Snow Light Snow
8:51 AM 17.6 °F 10.7 °F 12.2 °F 79% 30.15 in 2.0 mi NNW 4.6 mph - 0.00 in Snow Light Snow
8:52 AM 18.0 °F 12.7 °F 10.9 °F 74% 30.18 in 2.0 mi NW 3.5 mph - 0.00 in Snow Light Snow
9:01 AM 18.0 °F 12.7 °F 10.9 °F 74% 30.15 in 2.5 mi NW 3.5 mph - 0.00 in Snow Light Snow
9:18 AM 18.0 °F 12.7 °F 10.9 °F 74% 30.16 in 1.2 mi NW 3.5 mph - 0.00 in Snow Light Snow
9:40 AM 18.0 °F - 12.0 °F 78% 30.16 in 0.5 mi Calm Calm - 0.01 in Snow Snow
9:54 AM 18.0 °F 12.7 °F 12.0 °F 78% 30.20 in 0.8 mi NW 3.5 mph - 0.02 in Snow Light Snow
10:02 AM 18.0 °F 12.7 °F 12.0 °F 78% 30.17 in 1.0 mi NW 3.5 mph - 0.00 in Snow Light Snow
10:14 AM 18.0 °F 11.1 °F 12.0 °F 78% 30.19 in 0.5 mi NW 4.6 mph - 0.00 in Snow Snow
10:50 AM 17.6 °F 12.3 °F 12.2 °F 79% 30.19 in 0.2 mi NNW 3.5 mph - 0.02 in Snow Heavy Snow
10:54 AM 18.0 °F 11.1 °F 12.9 °F 81% 30.22 in 0.5 mi North 4.6 mph - 0.03 in Snow Snow
11:47 AM 19.0 °F 11.1 °F 12.9 °F 77% 30.16 in 1.0 mi NNE 5.8 mph - 0.02 in Snow Light Snow
11:54 AM 19.0 °F 13.9 °F 12.9 °F 77% 30.19 in 1.0 mi Variable 3.5 mph - 0.02 in Snow Light Snow
12:22 PM 19.0 °F 9.0 °F 12.9 °F 77% 30.15 in 0.8 mi NNE 8.1 mph - 0.00 in Snow Light Snow
12:43 PM 19.9 °F 12.1 °F 14.0 °F 78% 30.13 in 1.0 mi Variable 5.8 mph - 0.01 in Snow Light Snow
12:54 PM 19.9 °F 12.1 °F 14.0 °F 78% 30.17 in 1.5 mi Variable 5.8 mph - 0.01 in Snow Light Snow
1:04 PM 19.9 °F 11.1 °F 14.0 °F 78% 30.13 in 3.0 mi NE 6.9 mph - 0.00 in Snow Light Snow
1:11 PM 19.9 °F 10.1 °F 14.0 °F 78% 30.12 in 3.0 mi NNE 8.1 mph - 0.00 in Snow Light Snow
1:14 PM 19.9 °F 11.1 °F 12.9 °F 74% 30.12 in 2.5 mi North 6.9 mph - 0.00 in Snow Light Snow
1:24 PM 19.9 °F 10.1 °F 14.0 °F 78% 30.12 in 1.5 mi NE 8.1 mph - 0.00 in Snow Light Snow
1:39 PM 19.9 °F 11.1 °F 12.9 °F 74% 30.12 in 2.0 mi NNE 6.9 mph - 0.00 in Snow Light Snow
1:47 PM 19.9 °F 11.1 °F 12.9 °F 74% 30.12 in 1.8 mi North 6.9 mph - 0.01 in Snow Light Snow
1:54 PM 19.9 °F 11.1 °F 12.9 °F 74% 30.16 in 2.0 mi North 6.9 mph - 0.01 in Snow Light Snow
2:02 PM 19.9 °F 11.1 °F 12.9 °F 74% 30.11 in 1.5 mi NNE 6.9 mph - 0.00 in Snow Light Snow
2:11 PM 19.9 °F 12.1 °F 12.9 °F 74% 30.11 in 1.2 mi NNE 5.8 mph - 0.00 in Snow Light Snow
2:17 PM 19.9 °F 13.4 °F 14.0 °F 78% 30.12 in 1.5 mi NNE 4.6 mph - 0.00 in Snow Light Snow
2:30 PM 19.9 °F 13.4 °F 14.0 °F 78% 30.11 in 1.2 mi NNE 4.6 mph - 0.00 in Snow Light Snow
2:54 PM 19.9 °F 14.9 °F 14.0 °F 78% 30.15 in 1.2 mi NNE 3.5 mph - 0.01 in Snow Light Snow
3:15 PM 19.9 °F 13.4 °F 14.0 °F 78% 30.12 in 1.5 mi NNE 4.6 mph - 0.00 in Snow Light Snow
3:54 PM 19.9 °F 14.9 °F 14.0 °F 78% 30.15 in 1.8 mi NE 3.5 mph - 0.00 in Snow Light Snow
4:12 PM 19.9 °F 14.9 °F 14.0 °F 78% 30.11 in 1.2 mi NE 3.5 mph - 0.01 in Snow Light Snow
4:54 PM 19.9 °F 12.1 °F 15.1 °F 81% 30.13 in 1.5 mi NE 5.8 mph - 0.02 in Snow Light Snow
5:06 PM 19.9 °F 13.4 °F 15.1 °F 81% 30.10 in 2.5 mi NE 4.6 mph - 0.00 in Snow Light Snow
5:15 PM 19.9 °F 13.4 °F 15.1 °F 81% 30.10 in 4.0 mi NE 4.6 mph - 0.00 in Snow Light Snow
5:54 PM 19.9 °F 13.4 °F 15.1 °F 81% 30.14 in 6.0 mi ENE 4.6 mph - 0.00 in Snow Light Snow
6:01 PM 19.9 °F 13.4 °F 15.1 °F 81% 30.11 in 7.0 mi ENE 4.6 mph - 0.00 in Snow Light Snow
6:54 PM 19.9 °F 12.1 °F 15.1 °F 81% 30.14 in 3.0 mi ENE 5.8 mph - 0.01 in Snow Light Snow
7:19 PM 19.9 °F 11.1 °F 15.1 °F 81% 30.10 in 2.5 mi ENE 6.9 mph - 0.00 in Snow Light Snow
7:47 PM 19.9 °F 13.4 °F 15.1 °F 81% 30.10 in 3.0 mi NE 4.6 mph - 0.01 in Snow Light Snow
7:54 PM 19.9 °F 13.4 °F 15.1 °F 81% 30.14 in 3.0 mi NE 4.6 mph - 0.01 in Snow Light Snow
8:54 PM 19.9 °F 10.1 °F 16.0 °F 85% 30.12 in 4.0 mi NE 8.1 mph - 0.00 in Snow Light Snow
9:24 PM 19.9 °F 11.1 °F 16.0 °F 85% 30.08 in 3.0 mi NE 6.9 mph - 0.00 in   Overcast
9:39 PM 19.9 °F 10.1 °F 16.0 °F 85% 30.08 in 2.0 mi NE 8.1 mph - 0.00 in Snow Light Snow
9:54 PM 19.9 °F 10.1 °F 15.1 °F 81% 30.10 in 2.5 mi ENE 8.1 mph - 0.00 in   Haze
10:07 PM 19.9 °F 10.1 °F 15.1 °F 81% 30.06 in 3.0 mi NE 8.1 mph - 0.00 in   Haze
10:21 PM 19.9 °F 9.3 °F 15.1 °F 81% 30.06 in 2.5 mi ENE 9.2 mph - 0.00 in Snow Light Snow
10:30 PM 19.9 °F 10.1 °F 16.0 °F 85% 30.05 in 3.0 mi NE 8.1 mph - 0.00 in Snow Light Snow
10:54 PM 19.9 °F 10.1 °F 16.0 °F 85% 30.08 in 4.0 mi ENE 8.1 mph - 0.00 in   Overcast
11:01 PM 19.9 °F 11.1 °F 16.0 °F 85% 30.05 in 6.0 mi NE 6.9 mph - N/A   Overcast
11:54 PM 21.0 °F 11.4 °F 17.1 °F 85% 30.07 in 8.0 mi ENE 8.1 mph - N/A   Overcast